Regional Weather Roundup
Issued by NWS

Home | Current Version | Previous Version | Text Only | Print | Product List | Glossary On
Versions: 1 2 3 4 5 6 7 8 9 10 11 12 13 14 15 16 17 18 19 20 21 22 23 24 25 26 27 28 29 30 31 32 33 34 35 36 37 38 39 40 41 42 43 44 45 46 47 48 49 50
000
ASUS43 KDMX 260107
RWRIA

WEATHER ROUNDUP FOR IOWA
NATIONAL WEATHER SERVICE DES MOINES IA
700 PM CST SUN JAN 25 2015

NOTE: "FAIR" INDICATES FEW OR NO CLOUDS BELOW 12,000 FEET WITH NO
SIGNIFICANT WEATHER AND/OR OBSTRUCTIONS TO VISIBILITY.

* - THESE STATIONS ARE NOT NWS STATIONS...THUS NOT UNDER NWS
QUALITY CONTROL.  THEY ALSO DO NOT REPORT WEATHER SUCH
AS PRECIPITATION OR FOG.

IAZ001>003-012>014-020>022-031>034-043>046-260200-
   NORTHWEST IOWA

CITY           SKY/WX    TMP DP  RH WIND       PRES   REMARKS
CARROLL *      CLOUDY    32  28  86 CALM      30.05F
CHEROKEE *     CLOUDY    32  32 100 CALM      30.04F
DENISON *      CLOUDY    32  30  93 CALM      30.04S
LE MARS *      CLOUDY    34  32  93 S3        30.05S
ORANGE CITY *  CLOUDY    34  30  86 W3        30.03S
SHELDON *      CLOUDY    32  32 100 CALM      30.02S
SIOUX CITY     CLOUDY    36  32  85 W7        30.06S WCI  30
SPENCER        CLOUDY    32  28  85 CALM      30.03F
STORM LAKE *   CLOUDY    32  30  93 CALM      30.05R
$$

IAZ055>058-069>071-079>083-090>094-260200-
   SOUTHWEST IOWA

CITY           SKY/WX    TMP DP  RH WIND       PRES   REMARKS
ATLANTIC *     CLOUDY    32  28  86 NE3       30.07S
AUDUBON *      MOCLDY    30  27  86 CALM      30.07S
CLARINDA *     CLEAR     28  27  93 CALM      30.10S
COUNCIL BLFS * CLOUDY    36  34  93 NW7       30.06S WCI  30
CRESTON *      CLOUDY    32  28  86 N12       30.06F WCI  23
HARLAN  *      CLOUDY    30  30 100 S3        30.10S
LAMONI         CLOUDY    33  29  85 N8        30.05R WCI  26
RED OAK *      PTCLDY    27  27 100 CALM      30.08F
SHENANDOAH *   PTCLDY    32  28  86 CALM      30.10S
$$

IAZ047>049-059>061-072>074-084-260200-
   CENTRAL IOWA

CITY           SKY/WX    TMP DP  RH WIND       PRES   REMARKS
AMES           CLOUDY    32  25  75 N10       30.06S WCI  24
ANKENY *       CLOUDY    32  28  86 N7G14     30.07S WCI  26
CHARITON *     CLOUDY    32  28  86 N7        30.06R WCI  26
DES MOINES     CLOUDY    33  26  75 N9        30.07R WCI  25
GRINNELL*      CLOUDY    30  28  93 N5        30.05R WCI  25
KNOXVILLE *    CLOUDY    32  27  80 NW7       30.05R WCI  26
MARSHALLTOWN   CLOUDY    31  27  85 NW13      30.04R WCI  21
PELLA *        CLOUDY    32  28  86 N6        30.07R WCI  26
PERRY *          N/A     32  28  86 N6        30.07R WCI  26
$$

IAZ004>006-015-016-023>025-035-036-260200-
   NORTH CENTRAL IOWA

CITY           SKY/WX    TMP DP  RH WIND       PRES   REMARKS
ALGONA *       CLOUDY    28  25  86 N10       30.05S WCI  19
CLARION *      CLOUDY    30  27  86 N10       30.05R WCI  21
ESTHERVILLE    CLOUDY    27  24  89 CALM      30.03S
FORT DODGE *   CLOUDY    28  23  80 N7        30.07R WCI  21
MASON CITY     CLOUDY    27  22  81 N9        30.05S WCI  18
FOREST CITY *  CLOUDY    28  21  74 NW8       30.04S WCI  20
IOWA FALLS *   CLOUDY    30  27  86 NW6       30.05S WCI  24
$$

IAZ007>011-017>019-026>030-037>042-050>054-066-260200-
   NORTHEAST IOWA

CITY           SKY/WX    TMP DP  RH WIND       PRES   REMARKS
CEDAR RAPIDS   PTCLDY    24  19  81 N5        30.03R WCI  18
CHARLES CITY * CLOUDY    27  25  93 N8        30.05R WCI  18
CLINTON *      CLEAR     19  12  73 N8        30.04R WCI   9
DECORAH *      PTCLDY    23  16  74 NE6       30.03R WCI  16
DUBUQUE        CLEAR     19  11  70 NE9       30.01S WCI   8
MONTICELLO *   CLEAR     21  16  79 CALM      30.04R
OELWEIN *      CLEAR     25  21  86 N6        30.04R WCI  18
WATERLOO       CLOUDY    29  24  82 N13       30.04R WCI  19
$$

IAZ064-065-067-068-078-260200-
   EAST CENTRAL IOWA

CITY           SKY/WX    TMP DP  RH WIND       PRES   REMARKS
DAVENPORT      CLEAR     19  12  74 N8        30.02R WCI   9
IOWA CITY      CLOUDY    25  19  78 N6        30.06R WCI  18
MT. PLEASANT * PTCLDY    27  21  80 N10       30.03S WCI  17
MUSCATINE *    CLOUDY    25  19  80 N9        30.05R WCI  15
QUAD CITIES    PTCLDY    25  16  68 N7        30.02R WCI  17
$$

IAZ062-063-075>077-085>089-095>099-260200-
   SOUTHEAST IOWA

CITY           SKY/WX    TMP DP  RH WIND       PRES   REMARKS
BURLINGTON     PTCLDY    27  23  85 N16       30.02R WCI  15
FAIRFIELD *    MOCLDY    27  23  86 N7        30.05R WCI  19
FORT MADISON * MOCLDY    28  25  86 N10       30.03R WCI  19
KEOKUK *       CLOUDY    28  25  86 N13G22    30.02R WCI  18
OSKALOOSA *    CLOUDY    28  25  86 N6        30.05R WCI  22
CENTERVILLE *  CLOUDY    30  28  93 N8        30.05R WCI  23
OTTUMWA        CLOUDY    29  25  85 N12       30.05R WCI  19
WASHINGTON *   CLOUDY    28  27  93 N7        30.05R WCI  21
$$

ABBREVIATIONS USED IN REMARKS
   TC - TEMPERATURES IN CELSIUS
  WCI - WIND CHILL INDEX
   HX - HEAT INDEX
  VSB - VISIBILITY
$$



USA.gov is the U.S. government's official web portal to all federal, state and local government web resources and services.